Location: Poughquag
(41.6090°N, 73.6820°W)
Time: 12:32:11
(UTC-04:00)

Vanguard 1 - Pass Details

Date: 01 June 2020
Orbit: 650 x 3833 km, 34.2° (Epoch: 07 July)

Event Time Altitude Azimuth Distance (km) Brightness Sun altitude
Rises 10:51:24 0° 278° (W) 7,452 14.2 58.0°
Reaches altitude 10° 10:56:12 10° 275° (W) 6,661 14.1 58.8°
Maximum altitude 11:18:29 57° 205° (SSW) 4,141 14.2 62.3°
Drops below altitude 10° 11:37:12 10° 133° (SE) 5,706 14.5 64.9°
Sets 11:40:57 0° 129° (SE) 6,377 14.6 65.4°
